This is the latest recevied weather packets stored in our database for station/object DB0GMN-13. If no packets are shown the sender has not sent any weather packets the latest 10 day(s).
| Time | Temp. | Humidity | Pressure | Rain* | Wind** | Luminosity | Snow |
|---|---|---|---|---|---|---|---|
| 1777035640 | -1.11° C | 95% | 1015.4 hPa | 0 mm | - | 726 W/m² | - |
| 1777032640 | -1.11° C | 99% | 1015.5 hPa | 0 mm | - | 787 W/m² | - |
| 1777029663 | - | 99% | 1015.9 hPa | 0 mm | - | 818 W/m² | - |
| 1777028476 | -1.11° C | 98% | 1015.9 hPa | 0 mm | - | 817 W/m² | - |
| 1777027267 | - | 67% | 1015.8 hPa | 0 mm | - | 813 W/m² | - |
| 1777025436 | - | 38% | 1016 hPa | 0 mm | - | 787 W/m² | - |
| 1777023623 | - | 79% | 1016.2 hPa | 0 mm | - | 684 W/m² | - |
| 1777023019 | - | 59% | 1016.1 hPa | 0 mm | - | 726 W/m² | - |
| 1777018248 | -1.11° C | 93% | 1016.4 hPa | 0 mm | - | 602 W/m² | - |
| 1777016459 | -1.11° C | 99% | 1016.3 hPa | 0 mm | - | 275 W/m² | - |
| 1777015834 | -1.11° C | 99% | 1016.2 hPa | 0 mm | - | 228 W/m² | - |
| 1777011668 | -1.11° C | 99% | 1016.5 hPa | 0 mm | - | 168 W/m² | - |
| 1777010460 | -1.11° C | 99% | 1016.4 hPa | 0 mm | - | 113 W/m² | - |
| 1777008042 | -1.11° C | 98% | 1016.4 hPa | 0 mm | - | 58 W/m² | - |
| 1777006835 | -1.11° C | 93% | 1016.3 hPa | 0 mm | - | 37 W/m² | - |
| 1777006232 | -1.11° C | 98% | 1016.2 hPa | 0 mm | - | 33 W/m² | - |
| 1777005628 | -1.11° C | 96% | 1016.2 hPa | 0 mm | - | 26 W/m² | - |
| 1776999651 | -1.11° C | 93% | 1016 hPa | 0 mm | - | 0 W/m² | - |
| 1776999046 | -1.11° C | 93% | 1016 hPa | 0 mm | - | 0 W/m² | - |
| 1776995423 | -1.11° C | 98% | 1016.1 hPa | 0 mm | - | 0 W/m² | - |
| 1776994275 | -1.11° C | 97% | 1016 hPa | 0 mm | - | 0 W/m² | - |
| 1776988840 | -1.11° C | 99% | 1016.3 hPa | 0 mm | - | 0 W/m² | - |
* Rain latest hour (hover to see other rain measurements)
** Current wind speed in m/s (hover to see current wind gust speed)